Fairbanks Eiels, AK

11:38 PM AKDT on September 23, 2017 (GMT -0800)
Eielson Air Force Base

Weather History for PAEI - July, 2013

Change the Weather History Date:

Thursday, July 4, 2013

  Actual Average Record
Temperature  
Mean Temperature 56 °F -  
Max Temperature 70 °F 72 °F 92 °F (1958)
Min Temperature 45 °F 51 °F 40 °F (1981)
Degree Days  
Heating Degree Days 8    
Growing Degree Days 6 (Base 50)    
Moisture  
Dew Point 40 °F    
Average Humidity 53    
Maximum Humidity 77    
Minimum Humidity 31    
Precipitation  
Precipitation 0.00 in - - ()
Sea Level Pressure  
Sea Level Pressure 29.91 in    
Wind  
Wind Speed 4 mph (SW)    
Max Wind Speed 12 mph    
Max Gust Speed 20 mph    
Visibility 9 miles    
Events Rain    
Averages and records for this station are not official NWS values.
T = Trace of Precipitation, MM = Missing Value Source: NWS Daily Summary

Daily Weather History Graph

Daily Weather History Graph

Search for Another Location

Airport or City:

Trip Planner

Search our weather history database for the weather conditions in past years. The results will help you decide how hot, cold, wet, or windy it might be!

Date:

Astronomy

Jul. 04, 2013 Rise Set
Actual Time 3:21 AM AKDT 12:22 AM AKDT
Civil Twilight Sun does not set Sun does not set
Nautical Twilight Sun does not set Sun does not set
Astronomical Twilight Sun does not set Sun does not set
Moon 1:46 AM AKDT (7/4) 8:45 PM AKDT (7/4)
Length of Visible Light 24h 00m
Length of Day
21h 01m
Waning Crescent, 10% of the Moon is Illuminated
Jul 4
Waning Crescent
Jul 7
New
Jul 15
First Quarter
Jul 22
Full
Jul 29
Last Quarter

Hourly Weather History & Observations

Time (AKDT) Temp. Windchill Dew Point Humidity Pressure Visibility Wind Dir Wind Speed Gust Speed Precip Events Conditions
12:55 AM 58.8 °F - 42.4 °F 55% 29.88 in 10.0 mi Calm Calm - N/A   Overcast
1:55 AM 54.1 °F - 40.3 °F 59% 29.89 in 10.0 mi South 4.6 mph - N/A   Overcast
2:55 AM 50.7 °F - 39.0 °F 64% 29.90 in 10.0 mi SE 5.8 mph - N/A   Clear
3:55 AM 47.7 °F - 37.8 °F 69% 29.90 in 7.0 mi SSE 4.6 mph - N/A   Clear
4:55 AM 45.3 °F 43.0 °F 37.2 °F 73% 29.89 in 10.0 mi SE 4.6 mph - N/A   Scattered Clouds
5:55 AM 45.1 °F 43.7 °F 38.3 °F 77% 29.90 in 10.0 mi Variable 3.5 mph - N/A   Clear
6:55 AM 49.1 °F - 38.8 °F 68% 29.89 in 10.0 mi Calm Calm - N/A   Clear
7:55 AM 53.2 °F - 40.3 °F 61% 29.89 in 10.0 mi Calm Calm - N/A   Clear
8:55 AM 58.5 °F - 41.9 °F 54% 29.89 in 10.0 mi Calm Calm - N/A   Clear
9:39 AM 62.6 °F - 42.8 °F 48% 29.88 in 4.0 mi Variable 3.5 mph - N/A   Haze
9:55 AM 62.8 °F - 43.0 °F 48% 29.88 in 4.0 mi NNE 3.5 mph - N/A   Haze
9:58 AM 62.6 °F - 42.8 °F 48% 29.88 in 5.0 mi NE 3.5 mph - N/A   Haze
10:55 AM 66.7 °F - 37.9 °F 35% 29.87 in 10.0 mi Calm Calm - N/A   Clear
11:55 AM 68.5 °F - 37.0 °F 31% 29.86 in 10.0 mi SE 4.6 mph - N/A   Scattered Clouds
12:55 PM 65.7 °F - 40.6 °F 40% 29.88 in 10.0 mi West 11.5 mph 19.6 mph N/A   Mostly Cloudy
1:55 PM 66.6 °F - 39.9 °F 38% 29.88 in 10.0 mi WNW 8.1 mph - N/A   Mostly Cloudy
2:55 PM 62.6 °F - 44.1 °F 51% 29.89 in 10.0 mi Calm Calm - 0.00 in Rain Light Rain
3:55 PM 65.7 °F - 42.4 °F 43% 29.89 in 10.0 mi Variable 4.6 mph - 0.00 in   Mostly Cloudy
4:55 PM 65.5 °F - 39.6 °F 39% 29.90 in 10.0 mi West 9.2 mph - 0.00 in   Partly Cloudy
5:55 PM 64.6 °F - 36.7 °F 36% 29.92 in 10.0 mi West 9.2 mph 17.3 mph N/A   Mostly Cloudy
6:55 PM 61.9 °F - 38.7 °F 42% 29.94 in 10.0 mi West 10.4 mph 17.3 mph 0.00 in Rain Light Rain
7:55 PM 62.4 °F - 39.2 °F 42% 29.94 in 10.0 mi WSW 10.4 mph - 0.00 in   Partly Cloudy
8:55 PM 60.6 °F - 39.9 °F 46% 29.95 in 10.0 mi Calm Calm - N/A   Mostly Cloudy
9:55 PM 57.7 °F - 45.0 °F 62% 29.97 in 10.0 mi Variable 6.9 mph - N/A   Overcast
10:55 PM 54.7 °F - 44.2 °F 68% 30.00 in 10.0 mi Variable 6.9 mph - N/A   Mostly Cloudy
11:55 PM 52.2 °F - 42.8 °F 70% 30.01 in 10.0 mi Calm Calm - N/A   Clear